Location: Alfortville
(48.8058°N, 2.4204°E)
Time: 03:07:05
(UTC+00:00)

Envisat - Pass Details

Date: 28 November 2022
Orbit: 763 x 765 km, 98.2° (Epoch: 28 January)

Event Time Altitude Azimuth Distance (km) Brightness Sun altitude
Rises 04:05:48 0° 15° (NNE) 3,246 6.4 -30.9°
Reaches altitude 10° 04:08:08 10° 17° (NNE) 2,315 5.7 -30.5°
Enters shadow 04:11:23 40° 26° (NNE) 1,123 3.9 -30.0°
